Torna al catalogo

SL-8 R/B

AttivoLEO
NORAD 6683·ROCKET BODY·🇷🇺 Russia

Lanciato Jun 8, 1973 da Plesetsk Cosmodrome

Loading…

Prossimi Passaggi (prossime 24 ore)

TLE

AggiornatoSource: Space-Track

Epoca: Sep 14, 2026, 14:57 UTC

1 06683U 73037J   26257.62357955 -.00000026  00000-0 -97130-4 0  9991
2 06683  74.0225 327.7164 0070257  84.8206  83.6063 12.32104238396026

Traccia SL-8 R/B in tempo reale con AllMySat

Download on the App Store